GW1094 Weather Reports


Display with metric or nautical units.
time (UTC)temp
F
wind
direction
speed
MPH
gust
MPH
rain 1hr
in
rain 24hr
in
rain mn
in
humidity
%
barometer
mb
20260901174907 75 159 1.0 1.0 0.00 0.00 0.00 99 4100.0
20260901174403 75 159 0.0 1.0 0.00 0.00 0.00 99 4100.0
20260901173858 74 159 0.0 0.0 0.00 0.00 0.00 99 4100.0
20260901173353 74 159 0.0 0.0 0.00 0.00 0.00 99 4100.0
20260901172850 74 159 0.0 0.0 0.00 0.00 0.00 99 4100.0
20260901172349 73 159 1.0 1.0 0.00 0.00 0.00 99 4100.4
20260901171847 73 166 0.0 1.0 0.00 0.00 0.00 99 4100.4
20260901171346 73 169 0.0 1.0 0.00 0.00 0.00 99 4100.0
20260901170845 72 161 1.0 2.0 0.00 0.00 0.00 99 4100.0
20260901170340 71 163 0.0 1.0 0.00 0.00 0.00 99 4100.0
20260901165840 70 146 0.0 1.0 0.00 0.00 0.00 99 4100.4
20260901165334 70 146 0.0 1.0 0.00 0.00 0.00 99 4100.0
20260901164831 69 145 0.0 0.0 0.00 0.00 0.00 99 4100.0
20260901164325 69 158 0.0 1.0 0.00 0.00 0.00 99 4100.4
20260901163820 69 151 0.0 0.0 0.00 0.00 0.00 99 4100.4
20260901163315 68 154 0.0 1.0 0.00 0.00 0.00 99 4100.0
20260901162810 68 155 1.0 1.0 0.00 0.00 0.00 99 4100.4
20260901162309 68 156 1.0 1.0 0.00 0.00 0.00 99 4100.4
20260901161808 68 157 0.0 1.0 0.00 0.00 0.00 99 4100.0
20260901161302 68 158 1.0 1.0 0.00 0.00 0.00 99 4100.0
20260901160758 68 152 1.0 1.0 0.00 0.00 0.00 99 4100.0
20260901160254 68 152 1.0 2.0 0.00 0.00 0.00 99 4100.0
20260901155753 67 144 0.0 1.0 0.00 0.00 0.00 99 4100.4
20260901155248 67 155 2.0 3.0 0.00 0.00 0.00 99 4100.4
20260901154744 67 158 1.0 2.0 0.00 0.00 0.00 99 4100.0
20260901154238 67 162 2.0 2.0 0.00 0.00 0.00 99 4100.0
20260901153733 67 155 3.0 3.0 0.00 0.00 0.00 99 4099.7
20260901153233 67 160 3.0 5.0 0.00 0.00 0.00 99 4099.7
20260901152732 67 155 2.0 2.0 0.00 0.00 0.00 99 4100.0
20260901152231 67 158 1.0 1.0 0.00 0.00 0.00 99 4100.0
20260901151726 66 152 1.0 1.0 0.00 0.00 0.00 99 4100.0
20260901151221 66 160 2.0 2.0 0.00 0.00 0.00 99 4100.0
20260901150720 66 158 4.0 5.0 0.00 0.00 0.00 99 4099.7
20260901150218 66 153 3.0 3.0 0.00 0.00 0.00 99 4100.0
20260901145717 66 170 3.0 5.0 0.00 0.00 0.00 99 4100.0
20260901145211 66 160 3.0 3.0 0.00 0.00 0.00 99 4100.0
20260901144707 66 163 3.0 3.0 0.00 0.00 0.00 99 4100.0
20260901144202 66 160 1.0 1.0 0.00 0.00 0.00 99 4100.0
20260901143657 65 164 1.0 1.0 0.00 0.00 0.00 99 4100.0
20260901143154 65 167 1.0 1.0 0.00 0.00 0.00 99 4100.0
20260901142649 65 171 1.0 2.0 0.00 0.00 0.00 99 4100.0
20260901142148 65 169 0.0 0.0 0.00 0.00 0.00 99 4100.4
20260901141643 65 169 0.0 0.0 0.00 0.00 0.00 99 4100.4
20260901141143 65 167 0.0 0.0 0.00 0.00 0.00 99 4100.4
20260901140642 65 161 0.0 0.0 0.00 0.00 0.00 99 4100.0
20260901140141 65 162 0.0 0.0 0.00 0.00 0.00 99 4100.4
20260901135636 65 162 0.0 0.0 0.00 0.00 0.00 99 4100.0
20260901135131 65 161 0.0 0.0 0.00 0.00 0.00 99 4100.0
20260901134627 65 162 0.0 0.0 0.00 0.00 0.00 99 4100.0
20260901134122 65 166 0.0 0.0 0.00 0.00 0.00 99 4100.0
20260901133621 65 171 0.0 0.0 0.00 0.00 0.00 99 4100.0
20260901133119 65 173 1.0 1.0 0.00 0.00 0.00 99 4100.0
20260901132614 65 172 1.0 2.0 0.00 0.00 0.00 99 4100.0
20260901132114 65 168 2.0 2.0 0.00 0.00 0.00 99 4100.0
20260901131614 65 174 2.0 2.0 0.00 0.00 0.00 99 4100.0
20260901131108 65 171 1.0 1.0 0.00 0.00 0.00 99 4100.0
20260901130603 65 172 2.0 2.0 0.00 0.00 0.00 99 4100.0
20260901125600 65 168 1.0 2.0 0.00 0.00 0.00 99 4100.0
20260901125055 64 166 2.0 2.0 0.00 0.00 0.00 99 4100.0
20260901124550 65 169 2.0 2.0 0.00 0.00 0.00 99 4100.0
20260901124045 65 161 1.0 1.0 0.00 0.00 0.00 99 4099.7
20260901123540 65 171 1.0 1.0 0.00 0.00 0.00 99 4099.7
20260901123039 65 157 0.0 0.0 0.00 0.00 0.00 99 4099.7
20260901122538 64 170 2.0 2.0 0.00 0.00 0.00 99 4099.7
20260901122037 64 142 0.0 0.0 0.00 0.00 0.00 99 4099.4
20260901121532 64 139 0.0 0.0 0.00 0.00 0.00 99 4099.4
20260901121028 64 138 0.0 0.0 0.00 0.00 0.00 99 4099.4
20260901120527 64 138 0.0 0.0 0.00 0.00 0.00 99 4099.4
20260901120023 64 138 0.0 0.0 0.00 0.00 0.00 99 4099.4
20260901115518 64 138 0.0 0.0 0.00 0.00 0.00 99 4099.4
20260901115015 64 138 0.0 0.0 0.00 0.00 0.00 99 4099.7
20260901114511 64 138 0.0 0.0 0.00 0.00 0.00 99 4099.7
20260901114009 64 138 0.0 0.0 0.00 0.00 0.00 99 4099.4
20260901113508 64 138 0.0 0.0 0.00 0.00 0.00 99 4099.7
20260901113004 64 138 0.0 0.0 0.00 0.00 0.00 99 4099.4
20260901112458 64 139 0.0 0.0 0.00 0.00 0.00 99 4099.4
20260901111954 64 138 0.0 0.0 0.00 0.00 0.00 99 4099.4
20260901111452 64 138 0.0 0.0 0.00 0.00 0.00 99 4099.4
20260901110950 64 138 0.0 0.0 0.00 0.00 0.00 99 4099.4
20260901110446 63 138 0.0 0.0 0.00 0.00 0.00 99 4099.4
20260901105942 64 138 0.0 0.0 0.00 0.00 0.00 99 4099.4
20260901105438 64 138 0.0 0.0 0.00 0.00 0.00 99 4099.4
20260901104933 64 138 0.0 0.0 0.00 0.00 0.00 99 4099.4
20260901104428 64 138 0.0 0.0 0.00 0.00 0.00 99 4099.0
20260901103924 64 138 0.0 0.0 0.00 0.00 0.00 99 4099.4
20260901103424 64 138 0.0 0.0 0.00 0.00 0.00 99 4099.0
20260901102918 64 138 0.0 0.0 0.00 0.00 0.00 99 4099.4
20260901102419 64 138 0.0 0.0 0.00 0.00 0.00 99 4099.0
20260901101913 64 138 0.0 0.0 0.00 0.00 0.00 99 4099.0
20260901101408 64 138 0.0 0.0 0.00 0.00 0.00 99 4099.0
20260901100902 64 138 0.0 0.0 0.00 0.00 0.00 99 4099.0
20260901100357 64 138 0.0 0.0 0.00 0.00 0.00 99 4099.0
20260901095851 64 138 0.0 0.0 0.00 0.00 0.00 99 4099.0
20260901095348 64 138 0.0 0.0 0.00 0.00 0.00 99 4098.7
20260901094842 64 138 0.0 0.0 0.00 0.00 0.00 99 4099.0
20260901094337 64 138 0.0 0.0 0.00 0.00 0.00 99 4099.0
20260901093832 64 138 0.0 0.0 0.00 0.00 0.00 99 4099.0
20260901093331 64 138 0.0 0.0 0.00 0.00 0.00 99 4098.7
20260901092827 64 138 0.0 0.0 0.00 0.00 0.00 99 4099.0
20260901092323 64 138 0.0 0.0 0.00 0.00 0.00 99 4099.0
20260901091819 64 138 0.0 0.0 0.00 0.00 0.00 99 4098.7
20260901091318 64 138 0.0 0.0 0.00 0.00 0.00 99 4098.7
20260901090814 64 138 0.0 0.0 0.00 0.00 0.00 99 4098.7
20260901090308 64 138 0.0 0.0 0.00 0.00 0.00 99 4098.7
20260901085804 64 139 0.0 0.0 0.00 0.00 0.00 99 4099.0
20260901085259 64 138 0.0 0.0 0.00 0.00 0.00 99 4098.7
20260901084756 64 138 0.0 0.0 0.00 0.00 0.00 99 4098.7
20260901084252 64 138 0.0 0.0 0.00 0.00 0.00 99 4098.7
20260901083752 64 138 0.0 0.0 0.00 0.00 0.00 99 4098.7
20260901083252 64 138 0.0 0.0 0.00 0.00 0.00 99 4099.0
20260901082750 65 138 0.0 0.0 0.00 0.00 0.00 99 4098.7
20260901082245 65 138 0.0 0.0 0.00 0.00 0.00 99 4098.7
20260901081741 65 138 0.0 0.0 0.00 0.00 0.00 99 4098.7
20260901081240 65 138 0.0 0.0 0.00 0.00 0.00 99 4098.3
20260901080736 65 137 0.0 0.0 0.00 0.00 0.00 99 4098.3
20260901080234 65 137 0.0 0.0 0.00 0.00 0.00 99 4098.7
20260901075729 65 161 0.0 0.0 0.00 0.00 0.00 99 4098.7
20260901075224 65 159 0.0 0.0 0.00 0.00 0.00 99 4098.3
20260901074718 65 159 0.0 0.0 0.00 0.00 0.00 99 4098.7
20260901074214 65 159 0.0 0.0 0.00 0.00 0.00 99 4098.3
20260901073710 65 159 0.0 0.0 0.00 0.00 0.00 99 4098.7
20260901073205 65 159 0.0 0.0 0.00 0.00 0.00 99 4098.3
20260901072700 65 159 0.0 0.0 0.00 0.00 0.00 99 4098.3
20260901072155 65 159 0.0 0.0 0.00 0.00 0.00 99 4098.3
20260901071654 65 160 0.0 0.0 0.00 0.00 0.00 99 4098.3
20260901071149 65 160 0.0 0.0 0.00 0.00 0.00 99 4098.3
20260901070643 65 160 0.0 0.0 0.00 0.00 0.00 99 4098.3
20260901070138 64 159 0.0 0.0 0.00 0.00 0.00 99 4098.3
20260901065637 64 159 0.0 0.0 0.00 0.00 0.00 99 4098.0
20260901065132 64 159 0.0 0.0 0.00 0.00 0.00 99 4098.0
20260901064629 64 160 0.0 0.0 0.00 0.00 0.00 99 4098.0
20260901064125 64 160 0.0 0.0 0.00 0.00 0.00 99 4098.0
20260901063622 64 160 0.0 0.0 0.00 0.00 0.00 99 4098.0
20260901063118 64 160 0.0 0.0 0.00 0.00 0.00 99 4098.0
20260901062614 64 160 0.0 0.0 0.00 0.00 0.00 99 4098.0
20260901062110 64 160 0.0 0.0 0.00 0.00 0.00 99 4098.0
20260901061606 64 160 0.0 0.0 0.00 0.00 0.00 99 4098.3
20260901061105 64 160 0.0 0.0 0.00 0.00 0.00 99 4098.0
20260901060600 64 160 0.0 0.0 0.00 0.00 0.00 99 4098.0
20260901060055 64 160 0.0 0.0 0.00 0.00 0.00 99 4097.7
20260901055550 64 160 0.0 0.0 0.00 0.00 0.00 99 4097.7
20260901055047 64 160 0.0 0.0 0.00 0.00 0.00 99 4097.7
20260901054544 64 160 0.0 0.0 0.00 0.00 0.00 99 4097.7
20260901054040 64 160 0.0 0.0 0.00 0.00 0.00 99 4098.0
20260901053536 64 173 0.0 0.0 0.00 0.00 0.00 99 4098.0
20260901053031 64 173 0.0 0.0 0.00 0.00 0.00 99 4098.3
20260901052526 64 173 0.0 0.0 0.00 0.00 0.00 99 4097.7
20260901052026 64 173 0.0 0.0 0.00 0.00 0.00 99 4098.3
20260901051521 64 175 0.0 0.0 0.00 0.00 0.00 99 4098.0
20260901051019 63 179 0.0 0.0 0.00 0.00 0.00 99 4098.3
20260901050515 64 181 0.0 0.0 0.00 0.00 0.00 99 4098.0
20260901050010 64 183 0.0 0.0 0.00 0.00 0.00 99 4098.0
20260901045505 64 201 1.0 2.0 0.00 0.00 0.00 99 4098.0
20260901045000 64 170 0.0 0.0 0.00 0.00 0.00 99 4098.0
20260901044456 63 170 0.0 0.0 0.00 0.00 0.00 99 4098.3
20260901043952 63 170 0.0 0.0 0.00 0.00 0.00 99 4098.3
20260901043447 63 170 0.0 0.0 0.00 0.00 0.00 99 4098.0
20260901042942 63 170 0.0 0.0 0.00 0.00 0.00 99 4098.0
20260901042441 63 170 0.0 0.0 0.00 0.00 0.00 99 4098.0
20260901041937 63 170 0.0 0.0 0.00 0.00 0.00 99 4098.3
20260901041432 63 170 0.0 0.0 0.00 0.00 0.00 99 4098.3
20260901040931 63 170 0.0 0.0 0.00 0.00 0.00 99 4098.3
20260901040426 63 170 0.0 0.0 0.00 0.00 0.00 99 4098.0
20260901035920 63 170 0.0 0.0 0.00 0.02 0.02 99 4098.3
20260901035418 63 170 0.0 0.0 0.00 0.02 0.02 99 4098.3
20260901034917 63 170 0.0 0.0 0.00 0.02 0.02 99 4098.3
20260901034412 64 169 0.0 0.0 0.00 0.02 0.02 99 4098.3
20260901033907 64 169 0.0 0.0 0.00 0.02 0.02 99 4098.3
20260901033406 64 169 0.0 0.0 0.00 0.02 0.02 99 4098.3
20260901032905 64 169 0.0 0.0 0.00 0.02 0.02 99 4098.7
20260901032404 64 169 0.0 0.0 0.00 0.02 0.02 99 4098.3
20260901031900 64 169 0.0 0.0 0.00 0.02 0.02 99 4098.3
20260901031355 64 170 0.0 0.0 0.00 0.02 0.02 99 4098.3
20260901030854 64 170 0.0 0.0 0.00 0.02 0.02 99 4098.0
20260901030351 64 169 0.0 0.0 0.00 0.02 0.02 99 4098.0
20260901025849 64 169 0.0 0.0 0.00 0.02 0.02 99 4097.7
20260901025344 64 168 0.0 0.0 0.00 0.02 0.02 99 4098.0
20260901024839 64 176 0.0 0.0 0.00 0.02 0.02 99 4097.7
20260901024338 64 194 0.0 0.0 0.00 0.02 0.02 99 4097.7
20260901023836 65 183 0.0 0.0 0.00 0.02 0.02 99 4098.0
20260901023332 65 170 0.0 0.0 0.00 0.02 0.02 99 4098.0
20260901022827 65 170 0.0 0.0 0.00 0.02 0.02 99 4098.0
20260901022323 65 170 0.0 0.0 0.00 0.02 0.02 99 4098.3
20260901021818 65 170 0.0 0.0 0.00 0.02 0.02 99 4098.3
20260901021314 65 169 0.0 0.0 0.00 0.02 0.02 99 4098.3
20260901020808 65 169 0.0 0.0 0.00 0.02 0.02 99 4098.0
20260901020303 65 169 0.0 0.0 0.00 0.02 0.02 99 4098.0
20260901015758 65 169 0.0 0.0 0.00 0.02 0.02 99 4098.0
20260901015254 66 168 0.0 0.0 0.00 0.02 0.02 99 4098.3
20260901014753 66 166 0.0 1.0 0.00 0.02 0.02 99 4098.0
20260901014249 66 175 0.0 0.0 0.00 0.02 0.02 99 4098.0
20260901013745 66 177 0.0 0.0 0.00 0.02 0.02 99 4098.0
20260901013240 66 178 0.0 0.0 0.00 0.02 0.02 99 4098.3
20260901012735 66 179 2.0 2.0 0.00 0.02 0.02 99 4098.3
20260901012235 66 207 1.0 1.0 0.00 0.02 0.02 99 4098.3
20260901011731 66 178 0.0 0.0 0.00 0.02 0.02 99 4098.0
20260901011226 66 178 0.0 0.0 0.00 0.02 0.02 99 4098.3
20260901010720 66 238 3.0 3.0 0.00 0.02 0.02 99 4098.3
20260901010215 66 161 0.0 1.0 0.00 0.02 0.02 99 4098.3
20260901005714 66 156 0.0 0.0 0.00 0.02 0.02 99 4098.0
20260901005209 65 152 0.0 0.0 0.00 0.02 0.02 99 4098.0
20260901004708 65 137 0.0 0.0 0.00 0.02 0.02 99 4098.0
20260901004158 65 154 0.0 0.0 0.00 0.02 0.02 99 4097.7
20260901003657 65 150 0.0 0.0 0.00 0.02 0.02 99 4097.7
20260901003152 66 151 0.0 0.0 0.00 0.02 0.02 99 4097.7
20260901002651 66 164 1.0 1.0 0.00 0.02 0.02 99 4097.7
20260901002146 66 161 0.0 0.0 0.00 0.02 0.02 99 4097.7
20260901001642 66 159 0.0 0.0 0.00 0.02 0.02 99 4097.7
20260901001137 66 169 0.0 0.0 0.00 0.02 0.02 99 4097.7
20260901000632 66 191 0.0 0.0 0.00 0.02 0.02 99 4097.7
20260901000127 66 216 2.0 2.0 0.00 0.02 0.02 99 4097.7
20260831235621 66 247 1.0 1.0 0.00 0.02 0.02 99 4097.7
20260831235116 66 173 1.0 2.0 0.00 0.02 0.02 99 4097.7
20260831234610 66 146 1.0 3.0 0.00 0.02 0.02 99 4097.3
20260831234106 66 347 1.0 1.0 0.00 0.02 0.02 99 4097.7
20260831233601 66 28 1.0 2.0 0.00 0.02 0.02 99 4097.3
20260831233056 66 54 0.0 0.0 0.00 0.02 0.02 99 4097.3
20260831232552 66 5 3.0 5.0 0.00 0.02 0.02 99 4097.3
20260831232047 67 57 0.0 0.0 0.00 0.02 0.02 99 4097.7
20260831231544 67 77 0.0 0.0 0.00 0.02 0.02 99 4097.3
20260831231039 67 42 2.0 2.0 0.00 0.02 0.02 99 4097.3
20260831230534 68 7 2.0 3.0 0.00 0.02 0.02 99 4097.3
20260831230034 68 79 0.0 1.0 0.00 0.02 0.02 99 4097.3
20260831225529 68 323 1.0 2.0 0.00 0.02 0.02 99 4097.3
20260831225024 69 50 3.0 3.0 0.00 0.02 0.02 99 4097.3
20260831224519 70 60 0.0 1.0 0.00 0.02 0.02 99 4097.3
20260831224014 70 116 1.0 1.0 0.00 0.02 0.02 99 4097.3
20260831223509 71 113 0.0 1.0 0.00 0.02 0.02 99 4097.3
20260831223006 71 75 0.0 1.0 0.00 0.02 0.02 99 4097.3
20260831222502 71 53 0.0 0.0 0.00 0.02 0.02 99 4097.3
20260831222001 71 72 1.0 2.0 0.00 0.02 0.02 99 4097.7
20260831221457 71 24 1.0 1.0 0.00 0.02 0.02 99 4097.7
20260831220952 72 74 0.0 0.0 0.00 0.02 0.02 99 4097.7
20260831220448 72 93 0.0 0.0 0.00 0.02 0.02 99 4097.3
20260831215943 72 147 0.0 1.0 0.00 0.02 0.02 99 4097.7
20260831215438 72 104 1.0 1.0 0.00 0.02 0.02 99 4097.7
20260831214934 72 144 1.0 1.0 0.00 0.02 0.02 99 4097.7
20260831214432 72 115 0.0 0.0 0.00 0.02 0.02 99 4097.7
20260831213927 72 149 1.0 1.0 0.00 0.02 0.02 99 4097.7
20260831213424 72 123 0.0 0.0 0.00 0.02 0.02 99 4097.7
20260831212924 72 150 0.0 0.0 0.00 0.02 0.02 99 4097.7
20260831212420 72 102 1.0 1.0 0.00 0.02 0.02 99 4097.7
20260831211919 73 80 2.0 2.0 0.00 0.02 0.02 99 4097.7
20260831211414 74 159 2.0 3.0 0.00 0.02 0.02 98 4097.3
20260831210908 74 220 1.0 2.0 0.00 0.02 0.02 97 4097.3
20260831210404 73 150 1.0 1.0 0.00 0.02 0.02 98 4097.0
20260831205859 73 148 2.0 2.0 0.00 0.02 0.02 98 4097.3
20260831205355 73 210 2.0 3.0 0.00 0.02 0.02 98 4097.3
20260831204849 73 129 1.0 1.0 0.00 0.02 0.02 98 4097.7
20260831204348 72 109 0.0 1.0 0.00 0.02 0.02 99 4097.7
20260831203848 73 127 1.0 1.0 0.00 0.02 0.02 99 4097.7
20260831203343 74 143 2.0 2.0 0.00 0.02 0.02 97 4098.0
20260831202841 75 122 0.0 0.0 0.00 0.02 0.02 97 4097.7
20260831202336 76 121 2.0 2.0 0.00 0.02 0.02 95 4097.7
20260831201836 76 140 1.0 1.0 0.00 0.02 0.02 94 4097.7
20260831201335 76 161 1.0 1.0 0.00 0.02 0.02 96 4097.7
20260831200831 76 160 1.0 2.0 0.00 0.02 0.02 96 4098.0
20260831200326 77 7 0.0 0.0 0.00 0.02 0.02 95 4098.0
20260831195821 77 258 0.0 0.0 0.00 0.02 0.02 95 4098.0
20260831195317 78 57 0.0 1.0 0.00 0.02 0.02 93 4097.7
20260831194812 78 84 1.0 1.0 0.00 0.02 0.02 93 4098.0
20260831194307 77 189 1.0 2.0 0.00 0.02 0.02 94 4098.0
20260831193806 78 0 1.0 2.0 0.00 0.02 0.02 93 4098.0
20260831193301 77 65 0.0 1.0 0.00 0.02 0.02 95 4098.3
20260831192756 78 121 1.0 1.0 0.00 0.02 0.02 95 4098.3
20260831192251 77 202 1.0 1.0 0.00 0.02 0.02 94 4098.0
20260831191747 77 153 1.0 1.0 0.00 0.02 0.02 95 4098.3
20260831191243 77 162 2.0 2.0 0.00 0.02 0.02 96 4098.3
20260831190738 77 164 1.0 1.0 0.00 0.02 0.02 97 4098.3
20260831190233 77 152 0.0 0.0 0.00 0.02 0.02 96 4098.7
20260831185727 77 104 1.0 1.0 0.00 0.02 0.02 96 4098.3
20260831185223 78 127 2.0 2.0 0.00 0.02 0.02 94 4098.7
20260831184722 78 183 0.0 0.0 0.00 0.02 0.02 95 4098.7
20260831184218 79 94 2.0 2.0 0.00 0.02 0.02 91 4098.3
20260831183717 79 170 2.0 2.0 0.00 0.02 0.02 92 4098.7
20260831183212 79 137 2.0 3.0 0.00 0.02 0.02 94 4098.3
20260831182711 78 159 2.0 2.0 0.00 0.02 0.02 94 4098.3
20260831182206 79 140 0.0 0.0 0.00 0.02 0.02 96 4098.7
20260831181700 78 5 0.0 1.0 0.00 0.02 0.02 95 4098.3
20260831181155 78 142 1.0 1.0 0.00 0.02 0.02 95 4098.3
20260831180651 79 120 0.0 1.0 0.00 0.02 0.02 93 4098.7
20260831180146 78 179 1.0 1.0 0.00 0.02 0.02 95 4098.7
20260831175645 79 143 2.0 3.0 0.00 0.02 0.02 94 4098.7
20260831175142 79 156 0.0 0.0 0.00 0.02 0.02 95 4098.7